This is the latest recevied weather packets stored in our database for station/object VE3VGJ. If no packets are shown the sender has not sent any weather packets the latest 10 day(s).
| Time | Temp. | Humidity | Pressure | Rain* | Wind** | Luminosity | Snow |
|---|---|---|---|---|---|---|---|
| 1777485708 | 10.56° C | 81% | 1009.5 hPa | 0 mm | - | 135 W/m² | - |
| 1777485403 | 10.56° C | 83% | 1009.6 hPa | 0 mm | - | 139 W/m² | - |
| 1777485099 | 10.56° C | 84% | 1009.3 hPa | 0 mm | - | 134 W/m² | - |
| 1777484797 | 10.56° C | 84% | 1009.4 hPa | 0 mm | - | 180 W/m² | - |
| 1777484492 | 10.56° C | 83% | 1009.5 hPa | 0 mm | - | 182 W/m² | - |
| 1777484190 | 10.56° C | 83% | 1009.7 hPa | 0 mm | - | 139 W/m² | - |
| 1777483886 | 10.56° C | 84% | 1009.9 hPa | 0 mm | - | 141 W/m² | - |
| 1777483583 | 10.56° C | 84% | 1009.8 hPa | 0 mm | - | 141 W/m² | - |
| 1777483282 | 10.56° C | 84% | 1010 hPa | 0 mm | - | 136 W/m² | - |
| 1777482979 | 10.56° C | 84% | 1010 hPa | 1.27 mm | - | 193 W/m² | - |
| 1777482675 | 10.56° C | 84% | 1009.9 hPa | 3.05 mm | - | 259 W/m² | - |
| 1777482372 | 10.56° C | 84% | 1010.1 hPa | 3.56 mm | - | 242 W/m² | - |
| 1777482070 | 10.56° C | 83% | 1010.3 hPa | 4.83 mm | - | 214 W/m² | - |
| 1777481768 | 10.56° C | 83% | 1010.6 hPa | 3.05 mm | - | 161 W/m² | - |
| 1777481464 | 10.56° C | 83% | 1010.5 hPa | 3.05 mm | - | 123 W/m² | - |
| 1777481160 | 10.56° C | 83% | 1010.4 hPa | 1.27 mm | - | 144 W/m² | - |
| 1777480857 | 10.56° C | 82% | 1010.3 hPa | 1.78 mm | - | 131 W/m² | - |
| 1777480554 | 10.56° C | 80% | 1010.3 hPa | 1.78 mm | - | 64 W/m² | - |
| 1777480251 | 10.56° C | 79% | 1010.7 hPa | 0 mm | - | 47 W/m² | - |
| 1777479947 | 10.56° C | 78% | 1010.7 hPa | 0 mm | - | 60 W/m² | - |
| 1777479644 | 11.11° C | 77% | 1010.8 hPa | 0 mm | - | 56 W/m² | - |
| 1777479342 | 11.11° C | 77% | 1011.5 hPa | 0 mm | - | 63 W/m² | - |
| 1777479038 | 11.11° C | 75% | 1011.3 hPa | 0 mm | - | 127 W/m² | - |
| 1777478735 | 11.11° C | 73% | 1011.5 hPa | 0 mm | - | 105 W/m² | - |
| 1777478431 | 11.11° C | 73% | 1011.6 hPa | 0 mm | - | 144 W/m² | - |
* Rain latest hour (hover to see other rain measurements)
** Current wind speed in m/s (hover to see current wind gust speed)